Retour au catalogue

COSMOS 1275 DEB

ActifPO
NORAD 42205·DEBRIS·🇷🇺 Russia

Lancé Jun 4, 1981 depuis Plesetsk Cosmodrome

Loading…

Prochains Passages (prochaines 24 heures)

TLE

VieillissantSource: Space-Track

Époque: Sep 7, 2026, 17:12 UTC

1 42205U 81053TV  26250.71685045  .00000693  00000-0  66088-3 0  9990
2 42205  83.0316 252.7528 0113616 110.1658 251.1763 13.76345911640080

Suivez COSMOS 1275 DEB en temps réel avec AllMySat

Download on the App Store